Lafayette, IN

2:26 AM EDT on September 01, 2016 (GMT -0400)
Purdue Univ

Weather History for KLAF - December, 2013

Change the Weather History Date:

Wednesday, December 4, 2013

  Actual Average Record
Temperature  
Mean Temperature 51 °F 34 °F  
Max Temperature 61 °F 42 °F 66 °F (1998)
Min Temperature 41 °F 27 °F 3 °F (1991)
Degree Days  
Heating Degree Days 14 31  
Month to date heating degree days 91 120  
Since 1 July heating degree days 1267 1221  
Cooling Degree Days 0 0  
Month to date cooling degree days 0 0  
Year to date cooling degree days 884 983  
Growing Degree Days 2 (Base 50)    
Moisture  
Dew Point 49 °F    
Average Humidity 92    
Maximum Humidity 100    
Minimum Humidity 84    
Precipitation  
Precipitation 0.00 in 0.09 in 0.65 in (1952)
Month to date precipitation 0.07 0.38  
Year to date precipitation 37.55 34.45  
Sea Level Pressure  
Sea Level Pressure 29.71 in    
Wind  
Wind Speed 8 mph (SSE)    
Max Wind Speed 23 mph    
Max Gust Speed 30 mph    
Visibility 4 miles    
Events Fog    
T = Trace of Precipitation, MM = Missing Value Source: NWS Daily Summary

Daily Weather History Graph

Daily Weather History Graph

Search for Another Location

Airport or City:

Trip Planner

Search our weather history database for the weather conditions in past years. The results will help you decide how hot, cold, wet, or windy it might be!

Date:

Astronomy

Dec. 04, 2013 Rise Set
Actual Time 7:54 AM EST 5:21 PM EST
Civil Twilight 7:24 AM EST 5:51 PM EST
Nautical Twilight 6:50 AM EST 6:25 PM EST
Astronomical Twilight 6:17 AM EST 6:58 PM EST
Moon 9:22 AM EST (12/4) 7:31 PM EST (12/4)
Length of Visible Light 10h 27m
Length of Day
9h 26m
Waxing Crescent, 4% of the Moon is Illuminated
Dec 4
Waxing Crescent
Dec 9
First Quarter
Dec 17
Full
Dec 25
Last Quarter
Jan 1
New

Hourly Weather History & Observations

Time (EST) Temp. Windchill Dew Point Humidity Pressure Visibility Wind Dir Wind Speed Gust Speed Precip Events Conditions
12:54 AM 44.1 °F 40.8 °F 43.0 °F 96% 29.76 in 3.0 mi SSE 5.8 mph - N/A   Clear
1:54 AM 45.0 °F 42.6 °F 44.1 °F 97% 29.77 in 4.0 mi SSE 4.6 mph - N/A   Clear
2:54 AM 42.1 °F 40.2 °F 42.1 °F 100% 29.78 in 3.0 mi ESE 3.5 mph - N/A   Clear
3:33 AM 42.8 °F - 42.8 °F 100% 29.77 in 2.5 mi Calm Calm - N/A   Clear
3:54 AM 42.1 °F 40.2 °F 42.1 °F 100% 29.78 in 2.5 mi ESE 3.5 mph - N/A   Partly Cloudy
4:11 AM 42.8 °F 40.1 °F 41.0 °F 93% 29.77 in 2.0 mi ESE 4.6 mph - N/A   Scattered Clouds
4:14 AM 42.8 °F 40.1 °F 42.8 °F 100% 29.77 in 2.0 mi ESE 4.6 mph - N/A   Mostly Cloudy
4:27 AM 44.6 °F 42.2 °F 44.6 °F 100% 29.77 in 2.5 mi SE 4.6 mph - N/A   Mostly Cloudy
4:39 AM 44.6 °F - 44.6 °F 100% 29.77 in 1.0 mi Calm Calm - N/A   Overcast
4:47 AM 44.6 °F - 44.6 °F 100% 29.77 in 0.5 mi Calm Calm - N/A Fog Fog
4:54 AM 46.0 °F - 46.0 °F 100% 29.77 in 0.2 mi Calm Calm - N/A Fog Fog
5:25 AM 46.4 °F 44.3 °F 46.4 °F 100% 29.76 in 0.5 mi ESE 4.6 mph - N/A Fog Fog
5:42 AM 46.4 °F 42.9 °F 46.4 °F 100% 29.75 in 1.0 mi ESE 6.9 mph - N/A   Overcast
5:54 AM 48.0 °F - 48.0 °F 100% 29.76 in 0.8 mi SE 4.6 mph - N/A   Mist
6:13 AM 48.2 °F - 48.2 °F 100% 29.76 in 0.2 mi SE 5.8 mph - N/A Fog Fog
6:27 AM 48.2 °F - 48.2 °F 100% 29.76 in 0.5 mi SE 6.9 mph - N/A Fog Fog
6:54 AM 48.0 °F - 48.0 °F 100% 29.77 in 1.5 mi SE 6.9 mph - N/A   Overcast
7:54 AM 48.0 °F - 48.0 °F 100% 29.78 in 2.0 mi ESE 6.9 mph - N/A   Overcast
8:14 AM 48.2 °F - 48.2 °F 100% 29.77 in 1.5 mi ESE 5.8 mph - N/A   Overcast
8:44 AM 48.2 °F - 48.2 °F 100% 29.76 in 0.8 mi ESE 10.4 mph - N/A   Overcast
8:51 AM 48.2 °F - 48.2 °F 100% 29.76 in 1.0 mi SE 8.1 mph - N/A   Overcast
8:54 AM 48.9 °F - 48.9 °F 100% 29.77 in 1.0 mi SE 11.5 mph - N/A   Overcast
9:21 AM 48.2 °F - 48.2 °F 100% 29.75 in 2.0 mi SE 8.1 mph - N/A   Overcast
9:29 AM 50.0 °F - 48.2 °F 94% 29.75 in 1.0 mi SE 8.1 mph - N/A   Overcast
9:54 AM 50.0 °F - 50.0 °F 100% 29.76 in 2.5 mi SE 9.2 mph - N/A   Overcast
10:16 AM 50.0 °F - 50.0 °F 100% 29.76 in 3.0 mi SSE 11.5 mph - N/A   Overcast
10:54 AM 51.1 °F - 50.0 °F 96% 29.74 in 4.0 mi SE 13.8 mph 21.9 mph N/A   Overcast
11:54 AM 54.0 °F - 52.0 °F 93% 29.70 in 6.0 mi SE 10.4 mph - N/A   Overcast
12:54 PM 54.0 °F - 52.0 °F 93% 29.66 in 4.0 mi SSE 12.7 mph 20.7 mph N/A   Overcast
1:54 PM 55.0 °F - 53.1 °F 93% 29.63 in 3.0 mi South 9.2 mph - N/A   Overcast
2:24 PM 55.4 °F - 53.6 °F 94% 29.61 in 2.5 mi SSE 9.2 mph 17.3 mph N/A   Overcast
2:40 PM 55.4 °F - 53.6 °F 94% 29.61 in 4.0 mi SSE 10.4 mph 20.7 mph N/A   Overcast
2:54 PM 55.9 °F - 54.0 °F 93% 29.61 in 4.0 mi SSE 10.4 mph - N/A   Overcast
3:26 PM 57.2 °F - 53.6 °F 88% 29.59 in 5.0 mi SSE 11.5 mph - N/A   Overcast
3:54 PM 57.9 °F - 55.0 °F 90% 29.59 in 5.0 mi SSE 10.4 mph - N/A   Overcast
4:07 PM 57.2 °F - 55.4 °F 94% 29.59 in 5.0 mi SSE 10.4 mph - N/A   Overcast
4:54 PM 57.9 °F - 55.0 °F 90% 29.59 in 5.0 mi SSE 9.2 mph - N/A   Overcast
5:38 PM 57.2 °F - 55.4 °F 94% 29.59 in 6.0 mi SSE 8.1 mph - N/A   Overcast
5:54 PM 57.9 °F - 55.0 °F 90% 29.60 in 6.0 mi SSE 8.1 mph - N/A   Overcast
6:54 PM 57.9 °F - 55.0 °F 90% 29.62 in 7.0 mi South 8.1 mph - N/A   Overcast
7:54 PM 57.9 °F - 55.0 °F 90% 29.63 in 8.0 mi South 5.8 mph - N/A   Overcast
8:54 PM 61.0 °F - 55.0 °F 81% 29.64 in 10.0 mi SSW 10.4 mph - N/A   Overcast
9:54 PM 61.0 °F - 55.0 °F 81% 29.64 in 10.0 mi SW 12.7 mph 19.6 mph N/A   Overcast
10:54 PM 60.1 °F - 55.0 °F 83% 29.65 in 10.0 mi SW 9.2 mph - N/A   Overcast
11:54 PM 55.9 °F - 46.9 °F 72% 29.69 in 10.0 mi West 11.5 mph 24.2 mph N/A   Scattered Clouds